Regional Weather Roundup
Issued by NWS Midland/Odessa, TX

Home | Current Version | Previous Version | Text Only | Print | Product List | Glossary On
Versions: 1 2 3 4 5 6 7 8 9 10 11 12 13 14 15 16 17 18 19 20 21 22 23 24 25 26 27 28 29 30 31 32 33 34 35 36 37 38 39 40 41 42 43 44 45 46 47 48 49 50
000
ASUS44 KMAF 301110
RWRMAF
MIDLAND AREA WEATHER ROUNDUP
NATIONAL WEATHER SERVICE MIDLAND TX
600 AM CDT THU JUL 30 2015

...IN SOUTHWEST TEXAS AND SOUTHEAST NEW MEXICO...

CITY           SKY/WX    TMP DP  RH WIND       PRES   REMARKS
ALPINE         PTCLDY    69  55  62 CALM      30.28R
ANDREWS        FAIR      75  60  57 CALM      30.16S
ARTESIA        PTCLDY    72  64  78 N21       30.22R
BIG SPRING     MOCLDY    75  54  47 S7        30.16R
CARLSBAD       PTCLDY    73  58  59 W7        30.17R
DRYDEN           N/A     77  58  51 VRB6      30.08R
FORT STOCKTON  PTCLDY    74  56  53 SE8       30.13R
GUAD PASS      PTCLDY    72  54  53 NE5       30.31S
HOBBS          MOCLDY    75  59  57 S7        30.20S
MARFA          MOCLDY    64  59  82 CALM      30.26S
MIDLAND AIRPK  CLEAR     78  58  49 S3        30.15R
MIDLAND INTL   CLEAR     75  61  61 CALM      30.14R
ODESSA         CLEAR     78  54  43 SE6       30.15S
PECOS          CLEAR     74  54  48 E7        30.10R
PRESIDIO       FAIR      78  58  51 CALM      30.11R
SEMINOLE       PTCLDY    73  60  64 W5        30.18S
SNYDER         PTCLDY    78  61  55 S3        30.15R
WINK           PTCLDY    78  55  44 E7        30.11S
$$
...OTHER STATIONS IN TEXAS...

CITY           SKY/WX    TMP DP  RH WIND       PRES   REMARKS
ABILENE        CLEAR     76  62  62 S7        30.11R
AMARILLO       CLOUDY    70  68  93 NW10      30.26R FOG
AUSTIN         PTCLDY    71  71 100 CALM      30.05R
BROWNSVILLE    PTCLDY    76  75  97 CALM      30.00S FOG
CORPUS CHRISTI PTCLDY    72  70  94 CALM      30.02R FOG
DALLAS FTW     CLEAR     83  65  54 S3        30.04S
DEL RIO        CLEAR     78  70  76 E5        30.04R
EL PASO        TSTM      69  66  90 N15       30.23R
HOUSTON INT    PTCLDY    80  77  90 W6        30.02S
LUBBOCK        PTCLDY    69  63  81 N7        30.18R
SAN ANGELO     CLEAR     77  62  59 CALM      30.10R
SAN ANTONIO    CLEAR     77  70  79 SW3       30.07R
WACO           CLEAR     76  69  79 S3        30.05R
WICHITA FALLS  NOT AVBL
$$
...OTHER LOCATIONS IN NEW MEXICO...

CITY           SKY/WX    TMP DP  RH WIND       PRES   REMARKS
ALAMAGORDO     MOCLDY    68  61  77 N20G28    30.22F
ALBUQUERQUE    CLOUDY    67  58  72 E14       30.35F
CANNON AFB     NOT AVBL
CLOVIS         CLOUDY    68  63  83 N15       30.30R
HOLLOMAN AFB   CLOUDY    68  64  88 NE16      30.21F
ROSWELL        PTCLDY    70  62  76 N16G24    30.24R
RUIDOSO          N/A    N/A N/A N/A MISG        N/A
SANTA FE       CLOUDY    60  58  92 CALM      30.43
TRUTH OR CONSE LGT RAIN  65  63  93 CALM      30.28S
TUCUMCARI      HVY RAIN  65  63  93 N14       30.29F FOG
$$


USA.gov is the U.S. government's official web portal to all federal, state and local government web resources and services.